{"data":{"norad_id":64891,"epoch":"2026-05-25T03:57:56.882880Z","epoch_age_seconds":60922,"freshness":"FRESH","line1":"1 64891U 25155R   26145.16524170  .00014093  00000+0  45046-3 0  9998","line2":"2 64891  97.4532 114.3825 0003790 259.7329 100.3485 15.32550229 77290","mean_motion":15.32550229,"eccentricity":0.000379,"inclination_deg":97.4532,"raan_deg":114.3825,"arg_perigee_deg":259.7329,"mean_anomaly_deg":100.3485,"bstar":0.00045046,"rev_number":7729,"period_min":93.961031276581,"perigee_km":465.61191437432,"apogee_km":470.80144288272,"semimajor_km":6846.3436786285,"source":"CELESTRAK","updated_at":"2026-05-25T13:38:23.328827Z"}}